Location: Rio de Janeiro
(22.9068°S, 43.1729°W)
Time: 17:29:49
(UTC-03:00)

ISS - Visible Passes

Search period start: 15 July 2024 00:00
Search period end: 25 July 2024 00:00
Orbit: 410 x 424 km, 51.6° (Epoch: 15 July)

Date Brightness Start Highest point End Pass type
(mag) Time Alt. Az. Time Alt. Az. Time Alt. Az.
15 Jul -3.8 05:25:54 16° NW 05:28:28 66° SW 05:31:53 10° SE visible
16 Jul -1.9 04:41:39 29° ESE 04:41:39 29° ESE 04:43:33 10° SE visible
17 Jul -1.7 05:29:40 15° SSW 05:29:40 15° SSW 05:30:59 10° S visible
